YAOGAN 17B

导读

YAOGAN 17B(遥感十七B卫星)是中国于2013年9月1日8时发射的遥感卫星,隶属于中国遥感卫星系列。遥感卫星系列主要用于国土资源普查、农业估产、灾害监测与测绘等领域,可获取地球表面多维度观测数据,服务国民经济建设,同时开展空间科学技术试验验证,推动中国航天遥感技术持续发展,提升中国对地观测能力与空间应用水平。

Basic Information
目录编号:
39240
目录名称:
YAOGAN 17B
国际标识:
2013-046B
轨道中心:
EARTH
卫星名称:
YAOGAN 17B
卫星全名:
--
卫星状态:
在轨 (已飞行4762 天)
发射日期:
2013-09-01 UTC
国别 :
中国 (CN)
星等 :
--
This satellite is enrolled in the Space Conjunction Data Service (SCDS) and the current flight risk assessment level is: No High Risk
Orbit Information
数据来源 国际轨道数据 AOE轨道数据
星历时间 2026-09-15T21:50:27+0800
8小时前
查看轨道信息
2026-09-15T09:00:00+0800
21小时前
查看轨道信息
半长轴 7467.073km 7467.096km
偏心率 0.0434322 0.0434395
轨道倾角 63.385° 63.386°
近地点辐角 11.831° 11.849°
升交点赤经 217.698° 219.081°
平近点角 349.253° 277.627°
近地点 764.624km 764.592km
远地点 1413.248km 1413.326km
周期 107.025分钟 107.025分钟
每日圈数 13.454799 13.454738
Detailed Information
使用方式:
暂无
2D Orbit Map
3D Orbit Map
Orbit Altitude Analysis Chart
Orbit Inclination Analysis Chart
Orbit Comprehensive Analysis Chart
View Comprehensive Chart
Conjunction Data List
Event ID Objects TCA Miss Dist (km) Collision Risk Probability Collision Risk Index (CRI) Action
CDM_260918-033503-924004-076822
2026-09-18T
03:35:12+0000
0.589 km
远距离
7.525123E-5 中风险 0.73
Miss Distance Evolution Trend with All Objects Subscribe to Flight Safety Assessment
Collision Probability Evolution Trend with All Objects Subscribe to Flight Safety Assessment